CZ-6A DEB

Satellite information

Favourite Embed

Satellite Type and Status

DEBRISIN ORBIT

Key statistics

Satellite CZ-6A DEB at a glance.

Uptime

494

Days in orbit

Revolutions

≈ 14.1

Per day

Orbit

LEO

Low Earth Orbit

Inclination

89.0

Latest

Satellite identification and parameters

Extended collection of information and parameters for CZ-6A DEB.

Object identification

Identified? True

Debris? True

Object name: CZ-6A DEB

International designator: 2024-140XJ

Object number (NORAD): 61393

Object ID (CCSDS): 61393

Country: PEOPLES REPUBLIC OF CHINA (PRC)

Current information (Y/N): Y

RCS size: SMALL

Orbital parameters

Period: 101.86 minutes

Inclination: 88.9973 deg

SMA: 7224.835 km

Apoapsis: 910.367 km

Periapsis: 783.033 km

RAAN: 296.3701 deg

Eccentricy: 0.00881222

Argument of periapsis: 104.5164 deg

Mean anomaly: 256.5819 deg

Mean motion: 14.13711764 rev/day

Mean motion (dot): 0.0000428 rev/day2

B* drag term: 0.0021762825 1/REarth

Two-line elements (TLE)

Creation date: Dec. 12, 2025, 3:16 a.m.

Reference frame: TEME

Reference center: EARTH

Epoch: Dec. 11, 2025, 7:45 p.m. UTC

TLE line 0: 0 CZ-6A DEB

TLE line 1: 1 61393U 24140XJ 25345.82321333 .00004280 00000-0 21763-2 0 9992

TLE line 2: 2 61393 88.9973 296.3701 0088122 104.5164 256.5819 14.13711764 65235

Live tracking on map

Real-time ground track for satellite CZ-6A DEB.

In-orbit conjunctions

A list of the most updated potential collisions computed for object CZ-6A DEB.

Target Orbit TCA Probability of collision Miss distance Type
HEALTHSAT 1 SSO 2025-12-13 19:41:57 0.0001144218 805.0 (m) PAYLOAD
CZ-6 R/B LEO 2025-11-29 03:14:10 0.0001338351 143.0 (m) ROCKET BODY
ORBCOMM FM 5 DEB LEO 2025-05-21 21:24:47 0.000111827 47.0 (m) DEBRIS
COSMOS 1275 DEB LEO 2025-01-17 21:23:23 0.0001042627 801.0 (m) DEBRIS
CZ-6A DEB LEO 2025-01-15 14:52:49 0.0001718595 577.0 (m) DEBRIS

Associated space launch

18 Low Earth Orbit communication satellites with Ku, Q and V band payloads for the G60 constellation operated by Shanghai Spacecom Satellite Technology (SSST) with funding backed by the Shanghai local government. Initial constellation will consist of 1296 satellites by 2027 with long term plans to expand it to 12000 satellites.

CZ-6A DEB was lifted into orbit during the mission ‘Long March 6A | G60 Polar Group 01’, on board a Long March 6A space rocket.

The launch took place on Aug. 6, 2024, 6:42 a.m. from Launch Complex 9A.

For more information about the launch, click the button.

Launch to space Long March 6A | G60 Polar Group 01
Long March 6A | G60 Polar Group 01

Agency: N/A

Status: Launch Successful

Launch date: Aug. 6, 2024, 6:42 a.m. UTC

Rocket: Long March 6A

Launch pad: Launch Complex 9A

Location: Taiyuan Satellite Launch Center, People's Republic of China

...

Latest news about this satellite

News about space launch
Brightness of first Chinese broadband constellation satellites alarms astronomers

The first satellites of a Chinese broadband constellation are significantly brighter than those of Western systems, posing a new challenge for astronomers.

News about space launch
Chinese rocket stage breaks up into cloud of more than 700 pieces of space debris

HELSINKI — A Chinese Long March 6A rocket’s upper stage has fragmented into a cloud of over 700 pieces of space debris, adding to concerns about long-term orbital safety. China […]

News about space launch
China's Thousand Sails Megaconstellation Kicks Off with Dangerous Debris Field

China's Thousand Sails Megaconstellation Kicks Off with Dangerous Debris Field


Newsletter sign-up

Weekly statistics, charts and insights to help you stay on top of the space industry.